Wind_Speed
3 4 4 4 5 5 6 8 9 9 10 10 10 10 11 10 9 9 8 8 8 8 8 9 10 10 11 11 11 11 11 11 10 9 9 9 9 9 9 8 8 7 7 7 6 7 7 6 6
2 3 3 3 4 5 6 7 8 9 8 9 10 10 10 9 9 8 7 7 7 6 6 8 9 10 10 11 10 10 10 9 9 8 8 7 8 8 8 7 7 6 6 6 6 6 6 6 6
1 2 3 3 3 5 5 6 8 8 8 9 9 9 9 8 8 7 6 6 6 5 5 7 8 9 9 10 10 9 9 8 8 7 7 7 7 7 7 7 6 6 6 6 6 6 6 6 6
1 0 2 2 2 3 4 6 8 9 8 8 8 8 7 7 6 6 5 5 5 4 4 6 7 8 8 8 8 8 8 7 7 6 6 6 6 6 6 6 6 5 5 5 5 5 5 5 5
2 1 0 2 2 2 2 5 6 8 8 8 8 8 6 6 5 4 4 5 4 4 5 6 6 6 7 7 7 7 7 7 6 6 6 5 5 5 5 6 5 4 4 4 4 4 4 5 5
3 2 1 1 1 1 2 3 4 7 8 7 7 7 6 5 4 3 4 4 3 4 5 5 5 5 6 6 6 6 6 5 5 5 5 5 4 4 5 5 4 3 4 4 4 4 4 4 4
4 3 2 1 1 1 1 2 4 6 7 7 7 7 6 4 3 3 3 3 2 3 4 4 4 5 5 5 5 5 5 5 4 4 5 4 4 4 4 4 3 3 4 3 4 3 3 4 4
6 5 4 2 1 1 1 2 3 4 6 6 6 6 5 4 3 2 2 2 2 2 3 3 3 4 4 4 4 4 4 4 3 3 3 3 3 3 3 3 3 3 3 3 3 3 3 3 3
7 6 5 4 2 1 0 1 2 3 4 5 6 6 5 3 2 2 1 1 1 2 2 2 2 3 3 3 3 3 3 3 2 2 2 2 2 2 2 2 3 2 2 2 3 3 3 3 3
9 8 6 5 4 3 2 1 1 1 2 3 4 5 5 3 2 1 1 1 1 1 2 2 2 2 2 2 3 2 2 2 2 2 2 2 2 2 2 2 2 2 1 2 2 2 2 3 3
11 9 8 7 6 5 3 2 2 1 2 2 3 4 4 3 2 1 0 0 0 1 1 2 2 2 2 2 2 2 2 1 1 1 1 0 1 2 1 1 1 1 1 2 2 2 1 2 2
13 11 10 9 7 6 4 3 3 3 3 3 2 3 4 3 2 1 1 0 0 1 1 1 2 3 2 2 1 2 2 1 1 1 1 1 2 2 2 2 2 1 2 2 2 2 2 2 2
14 13 11 10 9 8 6 5 4 3 3 3 3 3 3 2 2 1 1 0 0 0 1 1 3 3 3 3 2 3 3 3 3 3 2 2 2 2 2 3 3 3 3 2 2 2 2 2 2
16 15 13 11 10 9 8 7 5 3 3 3 4 4 2 2 2 3 3 2 1 1 1 2 2 3 3 3 3 4 4 4 4 4 3 3 3 3 3 3 3 3 3 3 3 3 3 3 3
18 17 15 14 12 11 10 8 7 4 4 4 4 3 2 2 3 3 3 3 4 3 3 3 3 4 5 5 5 5 4 4 4 5 4 4 5 5 5 4 4 4 4 4 4 4 4 3 3
20 19 18 16 14 13 11 10 8 6 5 4 4 3 3 3 3 4 4 4 5 5 5 5 5 5 6 7 7 7 6 6 5 6 6 6 6 6 6 5 5 4 4 5 5 5 5 4 4
21 20 18 17 16 15 13 11 10 8 6 6 6 5 4 4 4 5 4 4 5 5 5 6 6 7 7 7 7 8 7 7 7 7 6 7 7 7 7 6 6 5 6 6 6 6 6 6 6
22 20 19 19 17 16 14 13 11 10 8 8 7 6 5 5 5 5 5 5 5 6 7 7 7 7 7 8 8 8 8 8 8 8 8 8 8 8 8 8 8 8 7 7 7 7 7 7 8
23 20 19 19 19 18 16 14 13 11 10 9 8 7 6 6 5 5 6 6 7 7 8 8 8 9 9 9 9 9 9 9 8 8 9 9 9 9 9 9 9 9 9 9 8 8 8 8 8
24 21 20 21 21 20 19 17 15 13 11 11 10 9 8 6 6 6 6 7 8 8 9 9 9 9 9 8 9 9 10 10 9 9 9 9 9 10 10 10 10 10 10 10 9 9 9 9 9
24 22 22 23 23 22 20 19 17 15 14 13 12 11 9 8 7 7 7 8 9 9 9 9 9 9 8 9 9 9 9 10 10 10 10 9 9 10 10 11 11 10 10 10 10 9 9 10 9
24 23 24 24 24 22 21 19 17 15 14 13 12 11 11 10 9 9 9 9 9 10 10 10 10 10 9 8 8 9 10 10 10 10 9 10 10 11 11 11 11 11 10 10 11 11 10 10 10
24 25 26 26 25 24 22 20 17 16 14 12 12 12 12 12 12 11 11 11 11 11 11 11 11 11 9 9 9 9 10 10 11 10 10 10 11 11 11 11 11 10 10 10 11 11 11 10 10
28 28 28 27 27 25 22 21 17 16 14 13 11 12 13 13 13 13 13 12 12 12 12 12 12 11 10 9 10 10 11 11 11 11 11 11 11 11 11 11 11 11 11 10 10 10 10 10 10
30 30 30 30 29 27 23 22 18 16 15 14 13 13 14 15 14 13 13 13 13 13 13 13 12 12 11 11 11 11 11 11 11 12 12 12 12 12 12 12 11 11 11 10 11 11 11 11 11
30 30 30 30 29 27 24 22 18 16 16 15 15 15 15 14 13 13 13 13 14 14 13 13 12 12 12 12 12 12 12 12 12 12 13 13 13 13 13 12 12 11 11 10 11 11 12 12 12
31 31 30 30 30 28 25 22 20 18 17 15 15 14 14 13 13 13 14 15 14 14 14 13 12 12 12 13 13 13 12 13 14 14 14 14 14 14 13 13 13 12 12 11 10 12 12 12 13
31 31 30 30 30 28 26 23 21 19 18 17 16 14 13 12 12 13 13 15 14 13 13 12 11 11 12 13 13 13 13 14 14 14 14 14 14 13 14 14 13 13 12 12 12 12 13 13 14
31 31 31 30 30 28 26 23 20 18 18 17 15 14 14 13 12 12 13 14 12 13 12 11 11 11 11 12 13 13 13 13 12 13 14 14 14 14 14 14 14 14 13 13 13 13 13 14 14
31 30 29 29 29 28 26 22 20 18 17 16 14 14 13 13 13 13 13 13 13 13 12 11 10 11 11 11 12 12 13 14 14 13 13 14 14 14 13 13 13 13 13 14 14 14 14 15 15
Wind_Direction
40 69 76 70 69 68 67 71 73 70 72 68 66 65 66 69 72 78 83 88 90 95 95 100 101 100 100 99 96 94 92 91 90 86 85 84 83 81 83 84 83 85 87 89 82 74 72 69 65
29 57 64 80 73 70 71 69 68 68 72 72 69 66 67 66 73 79 87 90 91 95 95 98 102 101 101 100 98 96 95 93 91 88 86 85 81 79 79 78 78 80 83 84 79 72 69 64 59
11 56 60 80 61 64 68 70 70 72 71 67 64 65 65 66 72 79 88 95 96 98 101 105 105 104 103 101 99 99 98 95 92 88 86 85 80 76 74 72 68 69 70 71 71 68 63 57 52
231 51 55 64 60 63 67 81 82 81 71 64 62 61 57 60 67 77 84 98 106 108 107 107 107 105 104 102 100 98 98 97 95 90 84 83 80 74 69 65 61 62 65 67 67 64 58 51 47
221 221 90 40 23 69 82 88 84 84 73 62 56 56 54 59 65 76 87 96 107 112 104 101 102 102 101 99 96 96 96 95 94 87 83 79 76 71 68 63 61 58 57 62 60 56 48 43 42
233 238 228 320 30 94 74 83 81 77 73 60 54 52 53 57 66 74 87 94 101 113 105 98 99 99 98 95 95 95 93 95 93 84 83 77 73 68 63 60 61 58 51 48 47 44 37 35 37
234 241 244 296 320 172 103 88 77 68 72 59 56 53 52 56 62 75 88 101 110 114 108 102 104 105 101 97 96 92 90 86 86 90 87 79 68 64 58 53 53 60 51 41 36 38 33 32 33
234 234 240 259 260 203 141 79 81 81 67 53 46 47 51 59 54 63 84 114 136 140 121 113 112 111 109 104 103 97 89 85 82 94 86 74 67 65 58 54 54 52 44 37 27 23 22 25 23
235 235 239 243 250 234 237 13 71 95 71 49 37 35 37 40 41 36 59 89 117 153 148 133 136 124 120 120 120 114 98 94 95 100 98 87 67 55 51 49 48 41 35 30 19 14 15 20 17
237 240 239 240 236 239 254 292 342 120 68 45 32 24 21 19 25 24 34 65 110 131 157 154 154 146 136 140 141 138 122 105 106 104 94 81 51 38 44 42 40 32 24 14 12 19 8 13 13
237 238 237 232 235 245 246 266 300 314 35 19 13 4 4 7 352 352 13 59 156 139 129 147 167 166 165 161 158 155 147 136 135 115 88 32 352 356 2 359 10 16 348 340 353 4 0 354 350
237 236 238 235 236 244 244 259 300 320 342 2 355 343 351 356 345 327 308 317 152 167 168 173 172 175 179 184 192 186 183 196 237 247 264 287 306 323 320 304 278 291 303 313 334 344 320 318 316
235 234 236 238 237 234 241 254 277 308 324 341 347 324 334 343 332 301 284 246 208 214 188 214 196 187 200 213 224 221 225 241 257 255 265 282 297 304 309 307 276 275 276 284 310 321 311 303 299
234 232 236 240 241 234 239 249 258 289 310 336 334 325 320 322 312 284 276 266 265 269 253 247 227 215 221 237 245 246 246 251 257 259 273 289 297 299 300 288 280 281 276 277 286 292 301 304 293
233 233 235 239 244 241 242 247 257 273 285 307 320 318 310 298 301 295 285 275 268 269 270 270 254 236 243 254 256 249 249 245 246 254 269 285 290 290 288 282 275 276 275 277 276 275 284 292 291
232 233 234 237 242 242 243 244 249 261 268 280 292 294 298 296 295 296 292 285 276 273 272 267 261 254 253 256 254 251 247 243 246 254 264 275 280 283 279 275 269 267 268 272 276 273 271 278 284
230 233 235 237 240 244 244 242 245 255 259 262 270 284 288 290 286 287 285 284 280 276 273 269 262 260 256 254 252 251 246 245 251 258 265 268 273 275 272 269 262 262 268 271 276 275 274 275 274
231 233 236 239 242 245 247 244 243 248 259 259 260 273 279 286 280 278 278 277 278 279 277 275 262 260 255 251 250 249 245 247 250 257 263 266 268 269 268 265 259 262 265 268 273 277 275 276 272
230 232 235 239 242 244 246 243 241 241 250 253 255 267 278 282 282 277 275 275 276 278 280 282 271 270 259 251 251 247 246 250 253 258 263 267 265 265 268 265 262 262 263 265 270 276 277 275 271
229 230 231 235 240 243 242 239 237 240 246 250 251 256 268 272 275 273 274 276 278 279 282 283 277 270 264 258 256 252 248 251 255 257 263 264 260 258 264 265 265 264 264 267 268 272 273 271 268
229 228 229 233 239 243 243 241 241 242 240 243 247 251 259 268 270 268 275 280 279 279 279 281 277 270 263 265 260 255 253 247 254 257 258 263 260 258 261 262 262 263 264 264 266 268 267 265 266
228 226 228 232 236 239 240 241 243 243 241 242 246 250 257 266 266 266 271 277 278 276 272 272 271 267 261 262 258 252 256 254 255 258 255 261 263 258 257 257 259 260 264 265 264 265 262 261 263
225 225 227 230 235 239 243 244 243 244 243 246 250 253 257 265 266 267 269 272 274 273 271 268 266 261 256 255 253 252 255 257 259 259 256 260 263 259 256 258 258 258 262 266 264 264 259 255 258
222 224 226 229 235 239 243 247 244 244 246 248 251 256 261 265 264 265 266 270 272 270 270 268 263 255 256 255 252 254 258 258 257 259 259 263 265 260 256 255 258 258 259 263 260 257 256 254 253
222 224 226 229 234 239 242 246 245 244 245 247 249 257 262 265 267 268 267 267 266 264 266 263 261 258 256 256 255 256 261 258 258 260 262 264 266 261 259 257 259 260 257 259 257 255 256 255 254
223 226 229 233 237 241 242 245 246 245 248 249 252 258 263 267 270 268 266 266 264 259 261 258 256 259 258 259 260 260 260 259 262 263 265 266 265 263 261 259 259 260 258 258 256 255 254 253 255
223 225 228 233 238 242 243 244 247 249 252 253 258 261 262 265 270 268 263 265 263 258 260 258 255 256 260 263 263 262 259 261 263 264 264 265 263 262 260 259 259 262 260 258 261 257 256 259 261
221 224 228 232 237 241 244 245 247 250 252 255 260 261 262 263 268 262 263 261 260 258 257 258 262 266 267 267 263 263 259 262 264 265 263 261 259 258 257 257 259 260 256 257 263 265 262 261 261
221 224 228 233 238 242 246 246 248 250 252 253 257 258 262 262 264 263 264 263 258 264 265 259 264 269 271 269 264 262 260 266 269 265 261 257 257 256 257 257 256 256 258 261 266 266 265 263 264
224 227 231 235 240 244 246 245 246 247 249 249 252 251 257 261 259 261 260 257 255 259 263 261 267 271 269 269 269 267 264 264 265 267 263 260 256 256 258 258 259 257 258 261 263 267 267 266 265
Height
5880 5880 5881 5882 5882 5882 5881 5881 5880 5880 5879 5880 5879 5879 5879 5880 5881 5883 5882 5881 5882 5883 5883 5883 5883 5884 5885 5886 5887 5887 5888 5889 5890 5890 5891 5892 5892 5893 5893 5893 5893 5894 5894 5894 5894 5894 5894 5894 5894
5881 5881 5883 5883 5883 5882 5883 5882 5881 5881 5881 5881 5880 5880 5881 5881 5881 5882 5882 5883 5883 5884 5884 5885 5885 5886 5886 5887 5888 5889 5890 5890 5891 5892 5892 5893 5894 5894 5894 5895 5895 5895 5895 5895 5895 5895 5895 5895 5895
5881 5882 5884 5884 5883 5884 5884 5883 5882 5882 5882 5882 5881 5882 5882 5882 5883 5883 5883 5884 5885 5886 5886 5886 5886 5887 5888 5889 5889 5890 5891 5891 5892 5893 5893 5894 5895 5895 5896 5896 5896 5896 5896 5896 5896 5896 5896 5896 5896
5882 5884 5884 5884 5884 5885 5884 5884 5883 5883 5883 5883 5883 5883 5883 5884 5884 5884 5884 5885 5886 5886 5887 5887 5887 5888 5889 5890 5890 5891 5892 5892 5893 5894 5894 5895 5896 5896 5897 5897 5897 5897 5897 5897 5897 5897 5897 5897 5897
5883 5884 5884 5884 5885 5885 5885 5885 5885 5884 5884 5884 5884 5884 5884 5885 5885 5885 5885 5886 5887 5887 5888 5888 5889 5890 5890 5891 5891 5892 5893 5893 5894 5895 5895 5896 5897 5897 5897 5898 5898 5898 5898 5898 5898 5898 5898 5898 5898
5883 5884 5884 5884 5885 5885 5885 5885 5886 5885 5885 5885 5885 5885 5885 5886 5886 5886 5886 5887 5888 5888 5888 5889 5890 5890 5891 5892 5892 5893 5893 5894 5895 5895 5896 5897 5897 5898 5898 5898 5898 5898 5899 5899 5899 5899 5898 5898 5898
5884 5884 5884 5884 5885 5886 5886 5886 5886 5886 5886 5886 5886 5886 5886 5886 5887 5887 5887 5887 5888 5889 5889 5890 5891 5891 5892 5893 5893 5894 5894 5894 5895 5896 5896 5897 5897 5898 5898 5899 5899 5899 5899 5899 5899 5899 5899 5899 5898
5882 5884 5884 5884 5885 5886 5886 5886 5886 5887 5887 5887 5887 5887 5887 5888 5888 5888 5888 5888 5889 5889 5890 5890 5891 5892 5893 5893 5894 5894 5895 5895 5896 5896 5896 5897 5897 5898 5898 5899 5899 5899 5899 5899 5899 5899 5899 5899 5899
5882 5884 5883 5884 5885 5886 5886 5887 5887 5887 5888 5888 5888 5888 5888 5888 5888 5889 5889 5889 5889 5889 5890 5891 5892 5892 5893 5894 5894 5895 5896 5896 5896 5896 5897 5897 5898 5898 5898 5899 5899 5899 5900 5900 5900 5899 5899 5899 5899
5881 5882 5883 5884 5885 5886 5886 5887 5887 5887 5888 5888 5888 5888 5888 5889 5889 5889 5889 5889 5890 5890 5890 5891 5892 5893 5893 5894 5895 5895 5896 5896 5897 5897 5897 5898 5898 5898 5899 5899 5899 5899 5899 5900 5900 5899 5899 5899 5899
5880 5881 5882 5883 5884 5885 5886 5887 5887 5888 5888 5888 5888 5888 5888 5889 5889 5889 5889 5889 5890 5890 5890 5891 5892 5893 5893 5894 5895 5895 5896 5896 5897 5897 5898 5898 5898 5898 5898 5899 5899 5899 5899 5899 5899 5899 5899 5899 5899
5878 5879 5881 5882 5884 5885 5886 5887 5887 5888 5888 5888 5888 5888 5888 5889 5889 5889 5889 5889 5890 5890 5890 5891 5892 5892 5893 5894 5895 5895 5896 5896 5897 5897 5897 5898 5898 5898 5898 5898 5898 5899 5899 5899 5899 5899 5899 5899 5899
5876 5878 5879 5881 5883 5885 5886 5887 5887 5888 5888 5888 5888 5889 5889 5889 5889 5889 5889 5889 5890 5890 5890 5891 5892 5893 5893 5894 5895 5895 5895 5896 5897 5897 5897 5897 5898 5898 5897 5897 5897 5898 5898 5898 5899 5899 5899 5899 5899
5875 5876 5878 5880 5882 5884 5885 5886 5887 5887 5888 5888 5888 5888 5888 5889 5889 5889 5889 5889 5889 5890 5890 5891 5891 5892 5893 5893 5894 5894 5895 5895 5896 5896 5897 5897 5897 5897 5897 5897 5896 5897 5897 5898 5898 5898 5898 5898 5898
5872 5875 5877 5879 5881 5882 5884 5885 5886 5886 5887 5887 5888 5888 5888 5888 5889 5889 5889 5889 5889 5889 5889 5890 5891 5891 5892 5893 5893 5893 5894 5894 5895 5896 5896 5896 5896 5896 5896 5896 5896 5896 5897 5897 5897 5897 5897 5898 5898
5870 5873 5875 5877 5879 5880 5884 5884 5884 5884 5885 5886 5887 5888 5888 5888 5888 5888 5888 5888 5888 5888 5889 5889 5890 5890 5891 5891 5892 5892 5893 5893 5894 5895 5895 5895 5895 5895 5895 5895 5895 5896 5896 5896 5896 5896 5897 5897 5897
5867 5870 5873 5875 5877 5878 5881 5882 5883 5883 5884 5886 5887 5887 5888 5888 5888 5888 5887 5887 5887 5887 5888 5888 5888 5889 5889 5890 5890 5891 5892 5892 5893 5893 5894 5894 5894 5894 5894 5894 5894 5894 5895 5895 5895 5896 5896 5896 5896
5865 5868 5870 5873 5874 5876 5878 5880 5881 5882 5883 5885 5885 5886 5886 5887 5887 5887 5887 5887 5887 5887 5887 5887 5887 5887 5888 5888 5889 5889 5890 5891 5891 5892 5892 5892 5893 5893 5893 5893 5893 5893 5893 5894 5894 5894 5894 5894 5894
5862 5865 5868 5870 5872 5874 5876 5878 5879 5880 5882 5883 5884 5884 5885 5885 5885 5885 5886 5886 5886 5886 5885 5885 5885 5886 5886 5887 5887 5887 5888 5889 5890 5890 5890 5891 5891 5891 5891 5891 5891 5891 5892 5892 5893 5893 5893 5893 5893
5858 5862 5865 5867 5868 5871 5873 5875 5877 5878 5880 5881 5882 5883 5884 5884 5884 5884 5884 5884 5884 5884 5884 5884 5884 5884 5884 5884 5885 5885 5886 5887 5887 5887 5888 5888 5889 5889 5889 5889 5889 5889 5890 5890 5891 5891 5891 5891 5892
5855 5859 5862 5863 5865 5867 5870 5873 5875 5876 5877 5878 5880 5881 5882 5882 5882 5882 5882 5883 5882 5882 5882 5882 5882 5882 5882 5882 5883 5883 5884 5885 5885 5885 5886 5886 5886 5887 5887 5887 5887 5887 5887 5888 5888 5889 5889 5889 5890
5852 5855 5857 5859 5862 5864 5867 5869 5872 5874 5875 5876 5877 5878 5880 5880 5880 5880 5880 5881 5880 5880 5880 5880 5880 5880 5880 5880 5881 5882 5882 5882 5883 5884 5884 5884 5884 5885 5885 5885 5885 5885 5885 5885 5886 5887 5887 5887 5888
5848 5850 5853 5855 5858 5861 5864 5866 5870 5871 5872 5874 5875 5876 5877 5878 5878 5878 5878 5878 5878 5877 5877 5877 5877 5878 5878 5879 5880 5880 5880 5881 5881 5881 5882 5882 5882 5882 5883 5882 5882 5883 5883 5883 5884 5884 5884 5885 5885
5842 5846 5849 5851 5854 5858 5861 5863 5866 5868 5870 5871 5873 5873 5874 5875 5875 5875 5875 5876 5875 5875 5874 5874 5874 5875 5876 5876 5877 5878 5878 5878 5879 5879 5879 5880 5880 5880 5880 5880 5880 5881 5881 5881 5882 5882 5882 5883 5883
5838 5842 5845 5848 5850 5854 5858 5860 5864 5866 5867 5868 5870 5870 5871 5871 5872 5872 5872 5873 5872 5872 5872 5872 5872 5872 5873 5874 5875 5875 5876 5876 5876 5877 5877 5877 5877 5877 5877 5878 5878 5878 5878 5878 5879 5879 5880 5880 5881
5834 5839 5843 5845 5848 5851 5854 5856 5861 5863 5864 5865 5866 5867 5867 5868 5869 5869 5869 5869 5869 5869 5869 5868 5869 5870 5870 5871 5871 5872 5873 5873 5873 5874 5874 5874 5874 5875 5875 5875 5875 5875 5876 5876 5876 5877 5877 5878 5878
5830 5833 5838 5841 5844 5847 5850 5854 5857 5859 5860 5862 5863 5864 5864 5865 5865 5866 5866 5866 5866 5866 5866 5866 5866 5866 5867 5868 5868 5868 5869 5870 5870 5871 5871 5871 5871 5872 5872 5872 5873 5873 5873 5874 5874 5875 5875 5876 5876
5826 5830 5833 5836 5839 5842 5846 5850 5853 5855 5857 5859 5860 5861 5861 5862 5862 5862 5863 5863 5863 5863 5864 5864 5864 5864 5864 5864 5865 5865 5866 5866 5866 5867 5867 5868 5868 5869 5869 5870 5870 5871 5871 5871 5872 5872 5872 5873 5873
5821 5825 5828 5832 5835 5838 5842 5848 5850 5851 5853 5855 5856 5857 5858 5859 5859 5859 5860 5860 5861 5861 5861 5861 5862 5861 5861 5861 5862 5863 5863 5863 5863 5863 5864 5864 5865 5866 5866 5867 5867 5868 5868 5869 5869 5869 5870 5870 5870
5816 5821 5825 5828 5831 5834 5838 5845 5845 5847 5849 5850 5852 5853 5855 5855 5856 5856 5857 5858 5858 5858 5859 5858 5859 5859 5859 5859 5859 5860 5860 5860 5860 5860 5860 5861 5862 5862 5863 5863 5864 5865 5865 5866 5866 5866 5866 5867 5867